Von / Nach
Hinflug - Rückflug
Erwachsene / Kinder
Promocode
Nächste Ankünfte Flughafen St.Gallen-Altenrhein

ZeitErw.vonFlugInfo
10:0010:00WienPE119
gelandet
15:3015:30PalmaPE501
planmässig
20:0020:00IbizaPE509
planmässig
20:0020:00WienPE125
planmässig
Nächste Abflüge Flughafen St.Gallen-Altenrhein

ZeitGeplantnachFlugInfo
10:4010:50PalmaPE500
abgeflogen
15:3015:30IbizaPE508
planmässig
17:2017:20WienPE124
planmässig

Flugplan

Bitte wählen Sie Ihren gewünschten Abflug- und Zielflughafen aus.


Live aus Altenrhein
LIVE
LSZR 181020Z 32005KT CAVOK 26/14 Q1012 NOSIG RMK D
Zeitraffer heute
2019-08-18 00:13:55
LSZR 172150Z AUTO 08003KT CAVOK 19/16 Q1013
Zeitraffer gestern
2019-08-17 00:14:26
LSZR 162150Z AUTO VRB02KT 9999 R10/1000U NCD 15/13 Q1017

Wien

Samstags-Special: Altenrhein-Wien für EUR 89.-.

 

Jetzt buchen

Menorca

Ab EUR 299.- hin & zurück.

 

Jetzt buchen

Kalabrien

Ab EUR 329.- hin & zurück.

 

Jetzt buchen

Ibiza

Ab EUR 279.- hin & zurück.

 

Jetzt buchen

Mallorca

Ab EUR 349.- hin & zurück.

 

Jetzt buchen

General Aviation

Business & General Aviation LSZR.

 

More information

Klimaneutrales Fliegen
Fliegen Sie mit People's CO2 klimaneutral !


 

 Shuttlebus


Nutzen Sie unseren

Shuttlebus zwischen Altenrhein

und Dornbirn & Bregenz.

 

Mehr dazu

 

People's Online-Shop


Von der Überraschung an

Bord über Badetücher bis

zum Flugzeugmodell.

 

Mehr dazu


News


Aktuelles von People's

und dem Flughafen

St.Gallen-Altenrhein.

 

Mehr dazu

 

Ad-hoc Charter


Chartern Sie eine unserer

Embraer170 für Ihren eigenen

Anlass oder ACMI-Einsätze.


Mehr dazu

  

 

Teile dein People's-Erlebnis mit uns:

 

#peoplesairline bei Instagram